User: anonymous
Location: Fort Hays State University
(38.8712°N, 99.3432°W)
Time: 07:01:07
(UTC-05:00)
Language:

Cosmos 2279 Rocket - Orbit

View from above orbital plane
View from above orbital plane
View from above satellite
View from above satellite

Ground track
Ground track

The orbit data is extracted from the following two-line orbital elements,

1 23093U 94024B   14109.45307189  .00000103  00000-0  88459-4 0  8359
2 23093 082.9468 253.2088 0009712 008.1894 351.9420 13.77613601472432
Epoch (UTC): 19 April 2014 10:52:25
Eccentricity: 0.0009712
inclination: 82.9468°
perigee height: 965 km
apogee height: 979 km
right ascension of ascending node: 253.2088°
argument of perigee: 8.1894°
revolutions per day: 13.77613601
mean anomaly at epoch: 351.9420°
orbit number at epoch: 47243

The dashed part of the orbit path shows where the satellite is in the earth's shadow,  

DLR